Mojave, CA

6:24 PM PDT on October 14, 2019 (GMT -0700)
Mojave

Weather History for KMHV - September, 2019

Change the Weather History Date:

Wednesday, September 18, 2019

  Actual Average Record
Temperature  
Mean Temperature 72 °F -  
Max Temperature 84 °F 87 °F 98 °F (2000)
Min Temperature 59 °F 59 °F 47 °F (1993)
Cooling Degree Days 6    
Growing Degree Days 22 (Base 50)    
Moisture  
Dew Point 37 °F    
Average Humidity 32    
Maximum Humidity 55    
Minimum Humidity 14    
Precipitation  
Precipitation 0.00 in - - ()
Sea Level Pressure  
Sea Level Pressure 29.92 in    
Wind  
Wind Speed 11 mph (WNW)    
Max Wind Speed 28 mph    
Max Gust Speed 34 mph    
Visibility 10 miles    
Events      
Averages and records for this station are not official NWS values.
T = Trace of Precipitation, MM = Missing Value Source: NWS Daily Summary

Daily Weather History Graph

Daily Weather History Graph

Search for Another Location

Airport or City:

Astronomy

Sep. 18, 2019 Rise Set
Actual Time 6:37 AM PDT 6:55 PM PDT
Civil Twilight 6:12 AM PDT 7:20 PM PDT
Nautical Twilight 5:42 AM PDT 7:50 PM PDT
Astronomical Twilight 5:12 AM PDT 8:20 PM PDT
Moon 9:41 PM PDT (9/18) 10:36 AM PDT (9/18)
Length of Visible Light 13h 08m
Length of Day
12h 17m
Waning Gibbous, 82% of the Moon is Illuminated
Sep 18
Waning Gibbous
Sep 21
Last Quarter
Sep 28
New
Oct 5
First Quarter
Oct 13
Full

Hourly Weather History & Observations

Time (PDT) Temp. Dew Point Humidity Pressure Visibility Wind Dir Wind Speed Gust Speed Precip Events Conditions
12:00 AM 62.6 °F 39.2 °F 42% 29.95 in 10.0 mi WNW 5.8 mph - N/A   Clear
12:20 AM 62.6 °F 41.0 °F 45% 29.95 in 10.0 mi WNW 9.2 mph - N/A   Clear
12:40 AM 64.4 °F 41.0 °F 42% 29.95 in 10.0 mi WNW 12.7 mph - N/A   Clear
1:00 AM 62.6 °F 42.8 °F 48% 29.95 in 10.0 mi NW 11.5 mph - N/A   Clear
1:20 AM 62.6 °F 42.8 °F 48% 29.94 in 10.0 mi WNW 10.4 mph - N/A   Clear
1:40 AM 62.6 °F 42.8 °F 48% 29.95 in 10.0 mi WNW 10.4 mph - N/A   Clear
2:00 AM 62.6 °F 41.0 °F 45% 29.94 in 10.0 mi WNW 8.1 mph - N/A   Clear
2:20 AM 60.8 °F 42.8 °F 52% 29.95 in 10.0 mi Calm Calm - N/A   Clear
2:40 AM 62.6 °F 41.0 °F 45% 29.94 in 10.0 mi Calm Calm - N/A   Clear
3:00 AM 60.8 °F 42.8 °F 52% 29.94 in 10.0 mi Calm Calm - N/A   Clear
3:20 AM 60.8 °F 41.0 °F 48% 29.94 in 10.0 mi Calm Calm - N/A   Clear
3:40 AM 60.8 °F 42.8 °F 52% 29.93 in 10.0 mi WSW 4.6 mph - N/A   Clear
4:00 AM 59.0 °F 41.0 °F 51% 29.93 in 10.0 mi West 6.9 mph - N/A   Clear
4:20 AM 60.8 °F 42.8 °F 52% 29.93 in 10.0 mi WNW 9.2 mph 17.3 mph N/A   Clear
4:40 AM 60.8 °F 42.8 °F 52% 29.92 in 10.0 mi WNW 16.1 mph - N/A   Clear
5:00 AM 60.8 °F 42.8 °F 52% 29.92 in 10.0 mi WNW 12.7 mph 19.6 mph N/A   Clear
5:20 AM 60.8 °F 42.8 °F 52% 29.92 in 10.0 mi West 15.0 mph 23.0 mph N/A   Clear
5:40 AM 60.8 °F 42.8 °F 52% 29.93 in 10.0 mi West 10.4 mph - N/A   Clear
6:00 AM 60.8 °F 42.8 °F 52% 29.93 in 10.0 mi WNW 10.4 mph - N/A   Clear
6:20 AM 59.0 °F 42.8 °F 55% 29.94 in 10.0 mi WNW 8.1 mph - N/A   Clear
6:40 AM 60.8 °F 42.8 °F 52% 29.94 in 10.0 mi West 15.0 mph - N/A   Clear
7:00 AM 60.8 °F 42.8 °F 52% 29.94 in 10.0 mi WNW 13.8 mph - N/A   Clear
7:20 AM 62.6 °F 42.8 °F 48% 29.94 in 10.0 mi WNW 15.0 mph - N/A   Clear
7:40 AM 64.4 °F 42.8 °F 45% 29.95 in 10.0 mi NNE 4.6 mph 12.7 mph N/A   Clear
8:00 AM 64.4 °F 41.0 °F 42% 29.96 in 10.0 mi ENE 4.6 mph - N/A   Clear
8:20 AM 64.4 °F 41.0 °F 42% 29.96 in 10.0 mi Calm Calm - N/A   Clear
8:40 AM 68.0 °F 41.0 °F 37% 29.96 in 10.0 mi ENE 3.5 mph - N/A   Clear
9:00 AM 69.8 °F 41.0 °F 35% 29.96 in 10.0 mi Calm Calm - N/A   Clear
9:20 AM 73.4 °F 41.0 °F 31% 29.96 in 10.0 mi Calm Calm - N/A   Clear
9:40 AM 71.6 °F 41.0 °F 33% 29.96 in 10.0 mi ENE 6.9 mph - N/A   Clear
10:00 AM 71.6 °F 39.2 °F 31% 29.96 in 10.0 mi NE 4.6 mph - N/A   Clear
10:20 AM 75.2 °F 39.2 °F 27% 29.96 in 10.0 mi Calm Calm - N/A   Clear
10:40 AM 77.0 °F 37.4 °F 24% 29.95 in 10.0 mi Variable 4.6 mph - N/A   Clear
11:00 AM 78.8 °F 35.6 °F 21% 29.96 in 10.0 mi West 15.0 mph - N/A   Clear
11:20 AM 78.8 °F 33.8 °F 20% 29.96 in 10.0 mi West 10.4 mph 19.6 mph N/A   Clear
11:40 AM 80.6 °F 32.0 °F 17% 29.95 in 10.0 mi West 13.8 mph 21.9 mph N/A   Clear
12:00 PM 80.6 °F 30.2 °F 16% 29.94 in 10.0 mi West 19.6 mph - N/A   Clear
12:20 PM 80.6 °F 32.0 °F 17% 29.94 in 10.0 mi West 20.7 mph - N/A   Clear
12:40 PM 80.6 °F 28.4 °F 15% 29.94 in 10.0 mi West 20.7 mph 28.8 mph N/A   Clear
1:00 PM 82.4 °F 30.2 °F 15% 29.93 in 10.0 mi West 18.4 mph 25.3 mph N/A   Clear
1:20 PM 82.4 °F 32.0 °F 16% 29.92 in 10.0 mi West 18.4 mph 26.5 mph N/A   Clear
1:40 PM 82.4 °F 32.0 °F 16% 29.92 in 10.0 mi West 18.4 mph - N/A   Clear
2:00 PM 82.4 °F 32.0 °F 16% 29.91 in 10.0 mi West 18.4 mph 27.6 mph N/A   Clear
2:20 PM 84.2 °F 30.2 °F 14% 29.91 in 10.0 mi WNW 19.6 mph 29.9 mph N/A   Clear
2:40 PM 82.4 °F 30.2 °F 15% 29.91 in 10.0 mi WNW 18.4 mph 27.6 mph N/A   Clear
3:00 PM 84.2 °F 30.2 °F 14% 29.90 in 10.0 mi West 23.0 mph 29.9 mph N/A   Clear
3:20 PM 82.4 °F 32.0 °F 16% 29.89 in 10.0 mi WNW 23.0 mph 29.9 mph N/A   Clear
3:40 PM 82.4 °F 30.2 °F 15% 29.89 in 10.0 mi West 26.5 mph - N/A   Clear
4:00 PM 82.4 °F 30.2 °F 15% 29.88 in 10.0 mi WNW 25.3 mph - N/A   Clear
4:20 PM 80.6 °F 30.2 °F 16% 29.88 in 10.0 mi West 24.2 mph - N/A   Clear
4:40 PM 80.6 °F 30.2 °F 16% 29.88 in 10.0 mi WNW 24.2 mph 32.2 mph N/A   Clear
5:00 PM 78.8 °F 32.0 °F 18% 29.89 in 10.0 mi WNW 25.3 mph - N/A   Clear
5:20 PM 78.8 °F 30.2 °F 17% 29.88 in 10.0 mi WNW 27.6 mph 34.5 mph N/A   Clear
5:40 PM 77.0 °F 28.4 °F 17% 29.89 in 10.0 mi West 21.9 mph 32.2 mph N/A   Clear
6:00 PM 77.0 °F 26.6 °F 16% 29.88 in 10.0 mi WNW 26.5 mph - N/A   Clear
6:20 PM 75.2 °F 28.4 °F 18% 29.88 in 10.0 mi WNW 18.4 mph 27.6 mph N/A   Clear
6:40 PM 73.4 °F 32.0 °F 22% 29.88 in 10.0 mi West 20.7 mph 29.9 mph N/A   Clear
7:00 PM 73.4 °F 33.8 °F 23% 29.88 in 10.0 mi West 19.6 mph 27.6 mph N/A   Clear
7:20 PM 71.6 °F 35.6 °F 27% 29.88 in 10.0 mi West 19.6 mph 28.8 mph N/A   Clear
7:40 PM 69.8 °F 35.6 °F 28% 29.89 in 10.0 mi West 18.4 mph 25.3 mph N/A   Clear
8:00 PM 69.8 °F 35.6 °F 28% 29.89 in 10.0 mi West 19.6 mph 29.9 mph N/A   Clear
8:20 PM 69.8 °F 33.8 °F 27% 29.89 in 10.0 mi West 20.7 mph 28.8 mph N/A   Clear
8:40 PM 69.8 °F 33.8 °F 27% 29.89 in 10.0 mi West 20.7 mph 28.8 mph N/A   Clear
9:00 PM 68.0 °F 35.6 °F 30% 29.90 in 10.0 mi West 19.6 mph - N/A   Clear
9:20 PM 68.0 °F 35.6 °F 30% 29.90 in 10.0 mi WSW 17.3 mph 26.5 mph N/A   Clear
9:40 PM 68.0 °F 35.6 °F 30% 29.91 in 10.0 mi WSW 15.0 mph - N/A   Clear
10:00 PM 68.0 °F 37.4 °F 33% 29.91 in 10.0 mi WSW 15.0 mph - N/A   Clear
10:20 PM 68.0 °F 37.4 °F 33% 29.91 in 10.0 mi West 18.4 mph - N/A   Clear
10:40 PM 68.0 °F 37.4 °F 33% 29.91 in 10.0 mi WSW 17.3 mph 25.3 mph N/A   Clear
11:00 PM 66.2 °F 37.4 °F 35% 29.91 in 10.0 mi West 16.1 mph - N/A   Clear
11:20 PM 66.2 °F 37.4 °F 35% 29.91 in 10.0 mi West 17.3 mph - N/A   Clear
11:40 PM 66.2 °F 37.4 °F 35% 29.90 in 10.0 mi West 18.4 mph - N/A   Clear